Tracking 28052 objects as of 25-Sep-2023
HD Live streaming from Space Station
objects crossing your sky now

SL-3 DEB

Track SL-3 DEB now!
10-day predictions


NORAD ID: 14631
Int'l Code: 1983-075E
Perigee: 408.0 km
Apogee: 414.8 km
Inclination: 97.8 °
Period: 92.6 minutes
Semi major axis: 6782 km
RCS: 0.045 m2 (small)
Launch date: July 24, 1983
Source: Commonwealth of Independent States (former USSR) (CIS)
Launch site: TYURATAM MISSILE AND SPACE COMPLEX (TTMTR)

Note: This is SATELLITE DEBRIS
Your satellite tracking list
Your tracking list is empty




NASA's NSSDC Master Catalog

Two Line Element Set (TLE):
1 14631U 83075E   23267.82224312  .00030772  00000-0  47172-3 0  9995
2 14631  97.8047 266.6507 0005021  32.8482 327.3082 15.54266806191468
Source of the keplerian elements: AFSPC